Frankfort, KY

11:46 AM EDT on October 19, 2017 (GMT -0400)
Capital City

Weather History for KFFT - November, 2013

Change the Weather History Date:

Friday, November 8, 2013

  Actual Average Record
Temperature  
Mean Temperature 40 °F 49 °F  
Max Temperature 53 °F 60 °F 79 °F (1895)
Min Temperature 27 °F 38 °F 18 °F (1971)
Degree Days  
Heating Degree Days 25 16  
Month to date heating degree days 124 119  
Since 1 July heating degree days 463 460  
Cooling Degree Days 0 0  
Month to date cooling degree days 0 0  
Year to date cooling degree days 1127 1154  
Moisture  
Dew Point 29 °F    
Average Humidity 68    
Maximum Humidity 100    
Minimum Humidity 35    
Precipitation  
Precipitation 0.00 in 0.11 in 2.28 in (1972)
Month to date precipitation 0.38 0.96  
Year to date precipitation 42.93 38.84  
Sea Level Pressure  
Sea Level Pressure 30.33 in    
Wind  
Wind Speed 3 mph (West)    
Max Wind Speed 12 mph    
Max Gust Speed 18 mph    
Visibility 10 miles    
Events      
T = Trace of Precipitation, MM = Missing Value Source: NWS Daily Summary

Daily Weather History Graph

Daily Weather History Graph

Search for Another Location

Airport or City:

Trip Planner

Search our weather history database for the weather conditions in past years. The results will help you decide how hot, cold, wet, or windy it might be!

Date:

Astronomy

Nov. 08, 2013 Rise Set
Actual Time 7:13 AM EST 5:32 PM EST
Civil Twilight 6:45 AM EST 6:00 PM EST
Nautical Twilight 6:14 AM EST 6:32 PM EST
Astronomical Twilight 5:43 AM EST 7:03 PM EST
Moon 12:08 PM EST (11/8) 10:52 PM EST (11/8)
Length of Visible Light 11h 15m
Length of Day
10h 19m
Waxing Crescent, 33% of the Moon is Illuminated
Nov 8
Waxing Crescent
Nov 10
First Quarter
Nov 17
Full
Nov 25
Last Quarter
Dec 2
New

Hourly Weather History & Observations

Time (EST) Temp. Windchill Dew Point Humidity Pressure Visibility Wind Dir Wind Speed Gust Speed Precip Events Conditions
12:53 AM 37.0 °F 32.4 °F 27.0 °F 67% 30.28 in 10.0 mi West 5.8 mph - N/A   Clear
1:53 AM 37.9 °F 30.9 °F 28.9 °F 70% 30.29 in 10.0 mi WNW 10.4 mph 18.4 mph N/A   Clear
2:53 AM 37.0 °F 32.4 °F 28.9 °F 73% 30.30 in 10.0 mi WNW 5.8 mph - N/A   Clear
3:53 AM 35.1 °F 31.0 °F 28.9 °F 78% 30.31 in 10.0 mi WNW 4.6 mph - N/A   Clear
4:53 AM 33.1 °F 30.0 °F 28.0 °F 82% 30.33 in 10.0 mi West 3.5 mph - N/A   Clear
5:53 AM 30.9 °F - 27.0 °F 85% 30.35 in 10.0 mi Calm Calm - N/A   Clear
6:53 AM 28.0 °F 24.2 °F 27.0 °F 96% 30.36 in 10.0 mi South 3.5 mph - N/A   Clear
7:53 AM 28.9 °F - 28.0 °F 96% 30.39 in 10.0 mi Calm Calm - N/A   Clear
8:53 AM 36.0 °F 33.3 °F 30.9 °F 82% 30.40 in 10.0 mi WSW 3.5 mph - N/A   Clear
9:53 AM 41.0 °F 38.0 °F 30.9 °F 67% 30.41 in 10.0 mi SW 4.6 mph - N/A   Clear
10:53 AM 45.0 °F - 30.9 °F 58% 30.40 in 10.0 mi Calm Calm - N/A   Clear
11:53 AM 48.0 °F - 28.0 °F 46% 30.38 in 10.0 mi West 5.8 mph - N/A   Clear
12:53 PM 51.1 °F - 28.9 °F 43% 30.36 in 10.0 mi Variable 3.5 mph - N/A   Clear
1:53 PM 51.1 °F - 27.0 °F 39% 30.34 in 10.0 mi Variable 4.6 mph - N/A   Clear
2:53 PM 52.0 °F - 26.1 °F 37% 30.32 in 10.0 mi NW 3.5 mph - N/A   Clear
3:53 PM 51.1 °F - 25.0 °F 36% 30.31 in 10.0 mi SSW 3.5 mph - N/A   Clear
4:53 PM 50.0 °F - 25.0 °F 38% 30.30 in 10.0 mi Calm Calm - N/A   Clear
5:53 PM 43.0 °F - 30.0 °F 60% 30.30 in 10.0 mi Calm Calm - N/A   Clear
6:53 PM 39.0 °F - 30.0 °F 70% 30.30 in 10.0 mi Calm Calm - N/A   Clear
7:53 PM 36.0 °F - 30.0 °F 79% 30.30 in 10.0 mi Calm Calm - N/A   Clear
8:53 PM 34.0 °F - 30.0 °F 85% 30.29 in 10.0 mi Calm Calm - N/A   Clear
9:53 PM 36.0 °F - 30.0 °F 79% 30.27 in 10.0 mi Calm Calm - N/A   Clear
10:53 PM 36.0 °F - 30.0 °F 79% 30.27 in 10.0 mi Calm Calm - N/A   Clear
11:53 PM 33.1 °F - 30.0 °F 89% 30.27 in 10.0 mi Calm Calm - N/A   Clear